Regional Weather Roundup
Issued by NWS Jackson, KY

Home | Current Version | Previous Version | Text Only | Print | Product List | Glossary Off
Versions: 1 2 3 4 5 6 7 8 9 10 11 12 13 14 15 16 17 18 19 20 21 22 23 24 25 26 27 28 29 30 31 32 33 34 35 36 37 38 39 40 41 42 43 44 45 46 47 48 49 50

000
ASUS43 KJKL 091510
RWRJKL

EAST KENTUCKY HOURLY WEATHER ROUNDUP
NATIONAL WEATHER SERVICE JACKSON KY
1000 AM EST TUE FEB 09 2016

NOTE: "FAIR" INDICATES FEW OR NO CLOUDS BELOW 12,000 FEET WITH
NO SIGNIFICANT WEATHER AND/OR OBSTRUCTIONS TO VISIBILITY.

* THESE REPORTS ARE NOT UNDER NWS QUALITY CONTROL AND MAY NOT
  REPORT WEATHER SUCH AS PRECIPITATION AND FOG.

KYZ079-080-083-085-087-088-110-112-115-119-120-091600
...EASTERN KENTUCKY...

CITY           SKY/WX    TMP DP  RH WIND       PRES   REMARKS
JACKSON        LGT SNOW  21  13  71 VRB3      29.76S
LONDON         CLOUDY    20  14  77 W8        29.80S WCI  10
SOMERSET*      FLURRIES  21  16  79 W6        29.85S WCI  14
MONTICELLO*    FLURRIES  22  14  71 W13G24    29.86S WCI  10
WILLIAMSBURG*  CLOUDY    21  18  86 CALM      29.82S
MIDDLESBORO*   CLOUDY    23  14  69 NW7       29.82R WCI  15
HARLAN APT*    CLOUDY    23  14  68 SW8G17    29.76S WCI  14
HAZARD APT*    LGT SNOW N/A N/A N/A CALM      29.78S
BLACK MTN*       N/A     12  12 100 NW1         N/A
BIG SANDY*     CLOUDY    21  12  67 W9G18     29.77S WCI  11
MOREHEAD APT*  LGT SNOW  21  14  73 W8G15     29.80S WCI  12
$$

KYZ035-036-041-042-044-050-067-078-099-091600
...CENTRAL KENTUCKY...

CITY           SKY/WX    TMP DP  RH WIND       PRES   REMARKS
MT STERLING*   CLOUDY    23  16  74 W10       29.81R WCI  12
DANVILLE*      CLOUDY    23  16  74 W8        29.83R WCI  14
RICHMOND*      CLOUDY    21  14  73 W12       29.81R WCI   9
LEXINGTON      CLOUDY    21  15  78 W8        29.80R WCI  11
FRANKFORT      CLOUDY    22  14  71 W8        29.81R WCI  12
$$

KYZ091>093-OHZ055-061-077-WVZ005-015-034-035-042-091600
...SOUTHERN OHIO/WEST VIRGINIA...

CITY           SKY/WX    TMP DP  RH WIND       PRES   REMARKS
COVINGTON      LGT SNOW  22  17  81 W9        29.77R WCI  12
COLUMBUS       LGT SNOW  23  18  81 SW12      29.68S WCI  12
DAYTON         CLOUDY    23  18  81 W17       29.71R WCI   9
WILMINGTON     LGT SNOW  20  17  88 W17       29.71R FOG     WCI   5
HUNTINGTON     CLOUDY    24  13  62 W12G17    29.77S WCI  13
CHARLESTON     LGT SNOW  25  18  74 W7G17     29.74R WCI  17
PINEVILLE*     LGT SNOW  26  18  72 MISG      29.73S
BECKLEY        CLOUDY    22  14  71 W8        29.63S WCI  12
$$

VAZ002-007-008-TNZ017-027-036-066-071-091600
...SOUTHWEST VIRGINIA/EAST TENNESSEE...

CITY           SKY/WX    TMP DP  RH WIND       PRES   REMARKS
BRISTOL        CLOUDY    23  15  71 W10       29.75R WCI  12
KNOXVILLE      CLOUDY    26  15  63 SW10      29.84R WCI  16
OAK RIDGE      CLOUDY    26  17  68 W6        29.86R WCI  19
CROSSVILLE     LGT SNOW  21  16  81 W5        29.79R WCI  15
NASHVILLE      SNOW      25  19  78 N9        29.91R VSB 1/2 WCI  15
$$

...KEY TO REMARKS...
VSB - VISIBILITY IN MILES
WCI - WIND CHILL INDEX
HX  - HEAT INDEX

$$




USA.gov is the U.S. government's official web portal to all federal, state and local government web resources and services.